Weather History for Weyburn, SK

Change the Weather History Date:

Wednesday, October 23, 2013

  Actual Average Record
Temperature  
Mean Temperature 34 °F -  
Max Temperature 42 °F - - ()
Min Temperature 25 °F - - ()
Degree Days  
Heating Degree Days 30    
Moisture  
Dew Point 29 °F    
Average Humidity 83    
Maximum Humidity 100    
Minimum Humidity 55    
Precipitation  
Precipitation 0.00 in - - ()
Sea Level Pressure  
Sea Level Pressure 30.26 in    
Wind  
Wind Speed 6 mph ()    
Max Wind Speed 14 mph    
Max Gust Speed -    
T = Trace of Precipitation, MM = Missing Value Source: Averaged Metar Reports

Daily Weather History Graph

Daily Weather History Graph

Search for Another Location

Airport:

Trip Planner

Search our weather history database for the weather conditions in past years. The results will help you decide how hot, cold, wet, or windy it might be!

Date:

Astronomy

Oct. 23, 2013 Rise Set
Actual Time 7:29 AM CST 5:48 PM CST
Civil Twilight 6:57 AM CST 6:21 PM CST
Nautical Twilight 6:19 AM CST 6:58 PM CST
Astronomical Twilight 5:42 AM CST 7:35 PM CST
Moon 9:07 PM CST 12:03 PM CST
Length of Visible Light 11h 24m
Length of Day
10h 18m
Waning Gibbous, 79% of the Moon is Illuminated
Oct 23
Waning Gibbous
Oct 26
Last Quarter
Nov 3
New
Nov 9
First Quarter
Nov 17
Full

Hourly Weather History & Observations

Time (CST) Temp. Windchill Dew Point Humidity Pressure Visibility Wind Dir Wind Speed Gust Speed Precip Events Conditions
12:00 AM 31.8 °F 27.3 °F 31.5 °F 99% 30.13 in - NNE 4.6 mph - 0.01 in   Unknown
1:00 AM 31.5 °F 26.8 °F 30.9 °F 98% 30.14 in - NE 4.6 mph - N/A   Unknown
2:00 AM 30.9 °F 27.5 °F 30.2 °F 97% 30.15 in - NNE 3.5 mph - N/A   Unknown
3:00 AM 30.6 °F 24.7 °F 30.2 °F 99% 30.17 in - North 5.8 mph - N/A   Unknown
4:00 AM 30.7 °F 26.0 °F 30.0 °F 97% 30.17 in - North 4.6 mph - N/A   Unknown
5:00 AM 31.1 °F 26.4 °F 30.6 °F 98% 30.20 in - WNW 4.6 mph - N/A   Unknown
6:00 AM 31 °F - 31 °F 99% 30.21 in - West 4.6 mph - -  
6:00 AM 31.3 °F 26.6 °F 30.7 °F 98% 30.21 in - West 4.6 mph - N/A   Unknown
7:00 AM 31.5 °F 28.1 °F 30.7 °F 97% 30.22 in - West 3.5 mph - N/A   Unknown
8:00 AM 32.0 °F 26.4 °F 31.6 °F 99% 30.24 in - WNW 5.8 mph - N/A   Unknown
9:00 AM 31.5 °F 24.2 °F 32.0 °F 100% 30.26 in - NW 8.1 mph - N/A   Unknown
10:00 AM 36.3 °F 28.0 °F 30.4 °F 79% 30.27 in - NNW 12.7 mph - N/A   Unknown
11:00 AM 37.8 °F 29.4 °F 30.4 °F 75% 30.28 in - NNW 13.8 mph - N/A   Unknown
12:00 PM 39 °F - 29 °F 57% 30.29 in - North 12.7 mph - -  
12:00 PM 39.4 °F 31.8 °F 28.9 °F 66% 30.29 in - North 12.7 mph - N/A   Unknown
1:00 PM 39.7 °F 32.7 °F 26.2 °F 59% 30.30 in - North 11.5 mph - N/A   Unknown
2:00 PM 39.9 °F 33.9 °F 26.4 °F 59% 30.30 in - NNW 9.2 mph - N/A   Unknown
3:00 PM 41.5 °F 35.0 °F 26.2 °F 55% 30.29 in - NW 11.5 mph - N/A   Unknown
4:00 PM 39.9 °F 32.9 °F 26.1 °F 58% 30.30 in - NNW 11.5 mph - N/A   Unknown
5:00 PM 37.9 °F 30.9 °F 27.0 °F 65% 30.31 in - NW 10.4 mph - N/A   Unknown
6:00 PM 32 °F - 27 °F 73% 30.32 in - NW 6.9 mph - -  
6:00 PM 31.8 °F 25.4 °F 26.6 °F 81% 30.32 in - NW 6.9 mph - N/A   Unknown
7:00 PM 31.5 °F 23.5 °F 27.0 °F 83% 30.33 in - WNW 9.2 mph - N/A   Unknown
8:00 PM 29.8 °F 22.2 °F 26.2 °F 86% 30.34 in - WNW 8.1 mph - N/A   Unknown
9:00 PM 28.4 °F 21.2 °F 25.5 °F 89% 30.33 in - WNW 6.9 mph - N/A   Unknown
10:00 PM 27.0 °F 18.0 °F 25.0 °F 92% 30.34 in - WNW 9.2 mph - N/A   Unknown
11:00 PM 25.2 °F 16.5 °F 23.7 °F 94% 30.34 in - NW 8.1 mph - N/A   Unknown